QPF
0.01 0.00 0.00 0.00 0.00 0.01 0.01 0.01 0.01 0.01 0.00 0.00 0.00 0.00 0.00 0.00 0.00 0.00 0.00 0.00 0.01 0.01 0.01 0.01 0.01 0.02 0.03 0.03 0.02 0.02 0.03 0.03 0.03 0.02 0.03 0.06 0.06 0.08 0.08 0.07 0.03 0.02 0.02 0.02
0.01 0.01 0.01 0.00 0.01 0.01 0.01 0.01 0.00 0.00 0.00 0.00 0.00 0.00 0.00 0.00 0.00 0.00 0.00 0.00 0.00 0.00 0.01 0.01 0.01 0.02 0.02 0.02 0.02 0.02 0.03 0.04 0.03 0.03 0.04 0.06 0.06 0.05 0.06 0.06 0.03 0.02 0.02 0.02
0.02 0.01 0.01 0.01 0.01 0.01 0.00 0.00 0.00 0.00 0.00 0.00 0.00 0.00 0.00 0.00 0.00 0.00 0.00 0.00 0.00 0.00 0.00 0.00 0.01 0.01 0.02 0.02 0.02 0.02 0.03 0.04 0.03 0.03 0.05 0.07 0.07 0.04 0.04 0.04 0.03 0.03 0.02 0.02
0.01 0.01 0.01 0.00 0.00 0.00 0.00 0.00 0.00 0.00 0.00 0.00 0.00 0.00 0.00 0.00 0.01 0.00 0.00 0.00 0.00 0.00 0.00 0.00 0.00 0.01 0.01 0.02 0.01 0.01 0.02 0.04 0.03 0.03 0.06 0.10 0.09 0.04 0.03 0.03 0.03 0.03 0.02 0.02
0.01 0.01 0.01 0.00 0.00 0.00 0.00 0.00 0.00 0.00 0.00 0.00 0.00 0.00 0.00 0.00 0.01 0.00 0.00 0.00 0.00 0.00 0.00 0.00 0.00 0.01 0.01 0.01 0.01 0.01 0.01 0.03 0.04 0.04 0.07 0.10 0.08 0.05 0.03 0.02 0.02 0.02 0.02 0.02
0.01 0.01 0.00 0.00 0.00 0.00 0.00 0.00 0.00 0.00 0.00 0.00 0.00 0.01 0.01 0.01 0.01 0.01 0.00 0.00 0.00 0.00 0.00 0.01 0.01 0.01 0.01 0.01 0.01 0.01 0.01 0.02 0.03 0.05 0.08 0.08 0.05 0.05 0.03 0.02 0.01 0.01 0.02 0.02
0.01 0.01 0.00 0.00 0.00 0.00 0.00 0.00 0.00 0.00 0.00 0.00 0.01 0.01 0.01 0.02 0.02 0.02 0.01 0.01 0.01 0.01 0.01 0.01 0.01 0.01 0.01 0.01 0.01 0.01 0.02 0.02 0.03 0.04 0.06 0.05 0.03 0.02 0.03 0.02 0.02 0.02 0.02 0.02
0.01 0.01 0.00 0.00 0.00 0.00 0.00 0.00 0.00 0.00 0.00 0.00 0.01 0.01 0.01 0.02 0.02 0.03 0.02 0.02 0.01 0.01 0.01 0.02 0.02 0.01 0.02 0.02 0.02 0.01 0.02 0.02 0.03 0.03 0.04 0.03 0.01 0.01 0.01 0.02 0.03 0.03 0.04 0.04
0.00 0.00 0.00 0.00 0.00 0.00 0.00 0.00 0.00 0.00 0.00 0.00 0.01 0.01 0.01 0.02 0.03 0.04 0.04 0.04 0.03 0.03 0.03 0.03 0.03 0.02 0.02 0.02 0.01 0.01 0.01 0.01 0.01 0.02 0.02 0.02 0.01 0.01 0.01 0.01 0.01 0.02 0.03 0.04
0.00 0.00 0.00 0.00 0.00 0.00 0.00 0.00 0.00 0.01 0.00 0.00 0.01 0.01 0.02 0.02 0.03 0.04 0.06 0.06 0.05 0.04 0.05 0.06 0.05 0.02 0.02 0.02 0.01 0.01 0.01 0.01 0.01 0.01 0.01 0.02 0.03 0.02 0.02 0.02 0.03 0.03 0.03 0.03
0.00 0.00 0.00 0.00 0.00 0.00 0.00 0.00 0.00 0.01 0.01 0.00 0.01 0.01 0.02 0.03 0.04 0.05 0.05 0.06 0.05 0.06 0.06 0.08 0.07 0.03 0.02 0.02 0.02 0.02 0.02 0.02 0.01 0.01 0.01 0.01 0.03 0.03 0.03 0.03 0.04 0.04 0.04 0.03
0.00 0.00 0.00 0.00 0.00 0.00 0.00 0.00 0.00 0.00 0.00 0.00 0.01 0.01 0.02 0.03 0.04 0.06 0.06 0.06 0.06 0.06 0.06 0.07 0.07 0.05 0.02 0.01 0.01 0.02 0.03 0.02 0.02 0.01 0.01 0.02 0.03 0.04 0.06 0.06 0.05 0.04 0.04 0.03
0.00 0.01 0.01 0.00 0.00 0.00 0.00 0.00 0.00 0.00 0.00 0.00 0.00 0.01 0.02 0.04 0.05 0.06 0.06 0.06 0.06 0.07 0.06 0.06 0.06 0.06 0.02 0.01 0.01 0.01 0.01 0.02 0.02 0.01 0.01 0.01 0.02 0.03 0.05 0.06 0.05 0.04 0.03 0.02
0.00 0.00 0.01 0.01 0.00 0.00 0.00 0.00 0.00 0.01 0.01 0.01 0.01 0.02 0.05 0.06 0.05 0.05 0.05 0.05 0.05 0.06 0.04 0.04 0.04 0.04 0.02 0.01 0.01 0.01 0.01 0.01 0.02 0.02 0.02 0.02 0.02 0.02 0.02 0.03 0.04 0.03 0.02 0.02
0.00 0.00 0.00 0.00 0.00 0.00 0.00 0.00 0.01 0.02 0.01 0.02 0.02 0.03 0.03 0.02 0.02 0.02 0.03 0.04 0.05 0.05 0.03 0.02 0.03 0.03 0.01 0.01 0.01 0.01 0.01 0.01 0.01 0.01 0.02 0.03 0.03 0.02 0.02 0.02 0.02 0.02 0.02 0.02
0.00 0.00 0.00 0.00 0.00 0.00 0.00 0.00 0.01 0.02 0.01 0.02 0.03 0.03 0.02 0.01 0.00 0.00 0.01 0.03 0.05 0.05 0.03 0.02 0.02 0.02 0.01 0.02 0.01 0.01 0.01 0.01 0.01 0.01 0.01 0.02 0.03 0.03 0.03 0.02 0.02 0.02 0.02 0.02
0.00 0.00 0.00 0.00 0.00 0.00 0.00 0.01 0.01 0.01 0.01 0.02 0.02 0.02 0.01 0.00 0.00 0.00 0.00 0.01 0.03 0.04 0.03 0.01 0.01 0.00 0.00 0.01 0.01 0.01 0.01 0.01 0.01 0.01 0.01 0.01 0.02 0.03 0.03 0.02 0.02 0.02 0.02 0.02
0.00 0.00 0.00 0.00 0.00 0.00 0.01 0.01 0.01 0.01 0.01 0.00 0.00 0.00 0.00 0.00 0.00 0.00 0.00 0.00 0.01 0.02 0.02 0.01 0.01 0.00 0.00 0.00 0.00 0.00 0.00 0.00 0.01 0.01 0.01 0.01 0.01 0.02 0.02 0.02 0.01 0.01 0.01 0.01
0.00 0.00 0.00 0.00 0.01 0.00 0.01 0.01 0.01 0.00 0.00 0.00 0.00 0.00 0.00 0.00 0.01 0.01 0.01 0.01 0.01 0.01 0.01 0.01 0.01 0.00 0.00 0.00 0.00 0.00 0.00 0.00 0.00 0.00 0.00 0.00 0.01 0.01 0.01 0.01 0.01 0.01 0.01 0.01
0.00 0.00 0.00 0.00 0.00 0.00 0.01 0.01 0.00 0.00 0.00 0.00 0.00 0.00 0.00 0.00 0.00 0.00 0.01 0.01 0.00 0.00 0.00 0.00 0.00 0.00 0.00 0.01 0.01 0.00 0.00 0.00 0.00 0.00 0.01 0.01 0.01 0.01 0.01 0.01 0.00 0.00 0.01 0.01
0.00 0.00 0.00 0.00 0.00 0.00 0.00 0.00 0.00 0.00 0.00 0.00 0.00 0.00 0.00 0.00 0.00 0.00 0.01 0.01 0.01 0.00 0.00 0.00 0.00 0.00 0.00 0.01 0.01 0.00 0.00 0.00 0.00 0.00 0.00 0.01 0.01 0.01 0.00 0.00 0.00 0.00 0.00 0.01
0.01 0.00 0.00 0.00 0.00 0.00 0.00 0.00 0.00 0.00 0.00 0.00 0.00 0.00 0.00 0.00 0.00 0.00 0.01 0.01 0.00 0.01 0.00 0.00 0.00 0.00 0.00 0.00 0.00 0.01 0.00 0.00 0.00 0.00 0.00 0.00 0.00 0.00 0.01 0.01 0.01 0.00 0.00 0.01
0.03 0.01 0.00 0.00 0.00 0.00 0.00 0.00 0.00 0.00 0.00 0.00 0.00 0.00 0.00 0.00 0.00 0.01 0.01 0.01 0.01 0.01 0.01 0.00 0.00 0.00 0.00 0.00 0.00 0.00 0.00 0.00 0.00 0.00 0.00 0.00 0.00 0.00 0.00 0.00 0.00 0.00 0.01 0.01
0.01 0.01 0.01 0.01 0.01 0.01 0.00 0.00 0.00 0.00 0.00 0.00 0.00 0.00 0.00 0.01 0.01 0.01 0.01 0.01 0.01 0.01 0.01 0.00 0.00 0.00 0.00 0.00 0.00 0.00 0.00 0.00 0.00 0.00 0.00 0.00 0.00 0.00 0.00 0.00 0.00 0.01 0.01 0.01
0.01 0.01 0.01 0.01 0.01 0.02 0.02 0.01 0.01 0.01 0.00 0.00 0.00 0.00 0.01 0.01 0.01 0.01 0.01 0.01 0.01 0.01 0.00 0.00 0.00 0.00 0.00 0.00 0.00 0.00 0.00 0.00 0.00 0.00 0.00 0.00 0.00 0.00 0.00 0.00 0.00 0.00 0.01 0.01
0.01 0.01 0.01 0.01 0.01 0.01 0.02 0.02 0.01 0.01 0.01 0.01 0.01 0.01 0.01 0.02 0.01 0.01 0.01 0.01 0.01 0.01 0.00 0.00 0.00 0.00 0.00 0.00 0.00 0.00 0.00 0.00 0.00 0.00 0.00 0.00 0.00 0.00 0.00 0.00 0.00 0.00 0.01 0.01
0.00 0.00 0.00 0.00 0.01 0.01 0.01 0.01 0.01 0.01 0.01 0.01 0.02 0.02 0.02 0.02 0.01 0.01 0.01 0.01 0.01 0.01 0.00 0.00 0.00 0.00 0.00 0.00 0.00 0.00 0.00 0.00 0.00 0.00 0.00 0.00 0.00 0.00 0.00 0.00 0.00 0.00 0.01 0.02
MSLP
1018.82 1019.11 1019.33 1019.44 1019.45 1019.34 1019.11 1018.77 1018.36 1017.91 1017.46 1017.06 1016.77 1016.61 1016.62 1016.78 1017.09 1017.53 1018.04 1018.61 1019.17 1019.72 1020.22 1020.67 1021.09 1021.48 1021.86 1022.24 1022.63 1023.03 1023.42 1023.79 1024.12 1024.40 1024.60 1024.75 1024.83 1024.88 1024.88 1024.87 1024.84 1024.82 1024.78 1024.74
1018.38 1018.55 1018.64 1018.65 1018.57 1018.40 1018.13 1017.80 1017.43 1017.03 1016.66 1016.35 1016.13 1016.03 1016.06 1016.23 1016.53 1016.93 1017.41 1017.94 1018.48 1019.01 1019.52 1019.99 1020.44 1020.87 1021.30 1021.72 1022.15 1022.58 1023.00 1023.40 1023.76 1024.07 1024.33 1024.52 1024.66 1024.74 1024.78 1024.79 1024.78 1024.75 1024.71 1024.66
1018.11 1018.13 1018.08 1017.95 1017.75 1017.49 1017.19 1016.85 1016.50 1016.17 1015.87 1015.63 1015.48 1015.43 1015.49 1015.66 1015.94 1016.31 1016.75 1017.24 1017.75 1018.28 1018.79 1019.29 1019.78 1020.25 1020.72 1021.18 1021.64 1022.09 1022.53 1022.95 1023.34 1023.68 1023.98 1024.21 1024.39 1024.52 1024.59 1024.62 1024.62 1024.59 1024.55 1024.48
1017.96 1017.82 1017.61 1017.33 1017.00 1016.65 1016.29 1015.94 1015.62 1015.34 1015.11 1014.95 1014.86 1014.86 1014.95 1015.12 1015.38 1015.72 1016.12 1016.57 1017.06 1017.58 1018.10 1018.62 1019.14 1019.65 1020.15 1020.64 1021.11 1021.58 1022.03 1022.47 1022.87 1023.23 1023.55 1023.82 1024.03 1024.19 1024.29 1024.34 1024.35 1024.32 1024.26 1024.19
1017.84 1017.55 1017.18 1016.76 1016.31 1015.87 1015.46 1015.10 1014.80 1014.57 1014.41 1014.32 1014.31 1014.35 1014.47 1014.65 1014.90 1015.21 1015.57 1016.00 1016.47 1016.97 1017.49 1018.03 1018.56 1019.09 1019.62 1020.12 1020.61 1021.08 1021.52 1021.95 1022.35 1022.72 1023.05 1023.34 1023.57 1023.75 1023.87 1023.93 1023.94 1023.91 1023.84 1023.76
1017.62 1017.21 1016.71 1016.17 1015.63 1015.12 1014.68 1014.32 1014.05 1013.88 1013.79 1013.77 1013.82 1013.92 1014.07 1014.27 1014.51 1014.80 1015.14 1015.54 1015.98 1016.47 1016.99 1017.53 1018.07 1018.61 1019.14 1019.64 1020.12 1020.57 1021.01 1021.41 1021.80 1022.16 1022.48 1022.77 1023.01 1023.19 1023.32 1023.38 1023.39 1023.36 1023.29 1023.20
1017.20 1016.71 1016.13 1015.52 1014.92 1014.38 1013.93 1013.60 1013.38 1013.26 1013.24 1013.30 1013.42 1013.58 1013.76 1013.98 1014.22 1014.50 1014.83 1015.20 1015.62 1016.09 1016.60 1017.12 1017.66 1018.19 1018.71 1019.20 1019.66 1020.09 1020.49 1020.87 1021.23 1021.56 1021.86 1022.14 1022.36 1022.54 1022.66 1022.72 1022.73 1022.69 1022.62 1022.52
1016.54 1016.00 1015.40 1014.76 1014.17 1013.64 1013.23 1012.94 1012.77 1012.73 1012.79 1012.92 1013.10 1013.31 1013.54 1013.77 1014.03 1014.31 1014.62 1014.97 1015.37 1015.82 1016.30 1016.81 1017.33 1017.84 1018.33 1018.79 1019.23 1019.62 1019.99 1020.33 1020.65 1020.96 1021.23 1021.47 1021.68 1021.84 1021.94 1021.99 1021.98 1021.94 1021.86 1021.76
1015.64 1015.12 1014.53 1013.94 1013.39 1012.93 1012.57 1012.35 1012.27 1012.29 1012.42 1012.62 1012.86 1013.11 1013.38 1013.64 1013.91 1014.19 1014.49 1014.83 1015.21 1015.64 1016.09 1016.57 1017.06 1017.54 1018.01 1018.44 1018.84 1019.20 1019.53 1019.84 1020.12 1020.38 1020.62 1020.83 1021.00 1021.13 1021.20 1021.23 1021.21 1021.15 1021.06 1020.97
1014.59 1014.12 1013.61 1013.10 1012.64 1012.27 1012.01 1011.88 1011.87 1011.97 1012.16 1012.41 1012.69 1012.99 1013.28 1013.56 1013.84 1014.13 1014.43 1014.75 1015.11 1015.51 1015.94 1016.39 1016.85 1017.30 1017.73 1018.13 1018.50 1018.83 1019.13 1019.40 1019.65 1019.88 1020.07 1020.24 1020.37 1020.46 1020.50 1020.49 1020.44 1020.36 1020.27 1020.16
1013.48 1013.10 1012.70 1012.32 1011.99 1011.73 1011.58 1011.54 1011.60 1011.77 1012.00 1012.29 1012.60 1012.92 1013.23 1013.52 1013.81 1014.10 1014.39 1014.71 1015.05 1015.43 1015.83 1016.25 1016.67 1017.09 1017.50 1017.87 1018.21 1018.52 1018.80 1019.04 1019.26 1019.45 1019.60 1019.73 1019.81 1019.85 1019.85 1019.80 1019.72 1019.61 1019.49 1019.38
1012.43 1012.17 1011.91 1011.67 1011.47 1011.35 1011.31 1011.35 1011.48 1011.68 1011.95 1012.25 1012.57 1012.89 1013.21 1013.51 1013.80 1014.09 1014.38 1014.68 1015.02 1015.37 1015.74 1016.13 1016.53 1016.92 1017.30 1017.65 1017.97 1018.26 1018.52 1018.74 1018.93 1019.09 1019.21 1019.29 1019.32 1019.32 1019.26 1019.17 1019.04 1018.90 1018.74 1018.60
1011.52 1011.39 1011.27 1011.18 1011.12 1011.12 1011.18 1011.29 1011.47 1011.70 1011.97 1012.27 1012.58 1012.89 1013.20 1013.50 1013.79 1014.08 1014.37 1014.67 1014.99 1015.32 1015.67 1016.03 1016.40 1016.76 1017.11 1017.44 1017.75 1018.02 1018.26 1018.47 1018.64 1018.76 1018.85 1018.88 1018.87 1018.81 1018.71 1018.56 1018.39 1018.20 1018.01 1017.83
1010.79 1010.79 1010.81 1010.85 1010.92 1011.02 1011.16 1011.32 1011.53 1011.76 1012.02 1012.31 1012.60 1012.90 1013.20 1013.49 1013.78 1014.07 1014.36 1014.65 1014.96 1015.27 1015.60 1015.93 1016.26 1016.60 1016.92 1017.22 1017.51 1017.76 1017.99 1018.18 1018.32 1018.42 1018.47 1018.47 1018.41 1018.30 1018.15 1017.96 1017.74 1017.50 1017.27 1017.05
1010.23 1010.34 1010.48 1010.64 1010.82 1011.00 1011.19 1011.39 1011.60 1011.83 1012.08 1012.33 1012.61 1012.89 1013.18 1013.47 1013.76 1014.05 1014.34 1014.63 1014.93 1015.22 1015.52 1015.82 1016.11 1016.41 1016.70 1016.97 1017.23 1017.46 1017.66 1017.83 1017.95 1018.03 1018.05 1018.01 1017.91 1017.76 1017.57 1017.33 1017.08 1016.80 1016.54 1016.28
1009.78 1009.99 1010.24 1010.49 1010.75 1010.99 1011.22 1011.43 1011.64 1011.86 1012.08 1012.32 1012.58 1012.85 1013.14 1013.44 1013.74 1014.04 1014.33 1014.62 1014.90 1015.18 1015.44 1015.70 1015.96 1016.21 1016.45 1016.69 1016.91 1017.11 1017.29 1017.43 1017.53 1017.57 1017.57 1017.50 1017.37 1017.19 1016.97 1016.71 1016.42 1016.13 1015.84 1015.56
1009.41 1009.71 1010.03 1010.35 1010.66 1010.94 1011.19 1011.41 1011.62 1011.82 1012.03 1012.26 1012.52 1012.79 1013.09 1013.41 1013.73 1014.04 1014.35 1014.64 1014.91 1015.16 1015.40 1015.61 1015.82 1016.03 1016.22 1016.41 1016.59 1016.75 1016.90 1017.01 1017.08 1017.10 1017.07 1016.98 1016.84 1016.64 1016.40 1016.13 1015.84 1015.55 1015.25 1014.96
1009.09 1009.45 1009.83 1010.20 1010.54 1010.84 1011.10 1011.32 1011.53 1011.72 1011.94 1012.17 1012.44 1012.74 1013.06 1013.40 1013.75 1014.09 1014.42 1014.71 1014.98 1015.21 1015.41 1015.59 1015.76 1015.91 1016.06 1016.20 1016.33 1016.46 1016.57 1016.65 1016.70 1016.70 1016.65 1016.55 1016.40 1016.20 1015.96 1015.69 1015.41 1015.13 1014.85 1014.57
1008.83 1009.24 1009.66 1010.05 1010.41 1010.72 1010.98 1011.20 1011.40 1011.61 1011.84 1012.09 1012.39 1012.73 1013.09 1013.48 1013.86 1014.23 1014.58 1014.89 1015.15 1015.37 1015.55 1015.70 1015.83 1015.94 1016.04 1016.14 1016.24 1016.33 1016.41 1016.46 1016.49 1016.48 1016.42 1016.31 1016.16 1015.96 1015.74 1015.49 1015.23 1014.97 1014.72 1014.47
1008.66 1009.10 1009.54 1009.95 1010.31 1010.62 1010.88 1011.11 1011.32 1011.55 1011.80 1012.09 1012.43 1012.81 1013.23 1013.66 1014.09 1014.50 1014.88 1015.20 1015.47 1015.69 1015.86 1015.99 1016.08 1016.17 1016.24 1016.31 1016.38 1016.45 1016.51 1016.55 1016.56 1016.53 1016.47 1016.36 1016.21 1016.03 1015.82 1015.59 1015.36 1015.13 1014.91 1014.69
1008.63 1009.10 1009.55 1009.96 1010.32 1010.62 1010.88 1011.12 1011.35 1011.60 1011.89 1012.23 1012.62 1013.05 1013.52 1014.00 1014.47 1014.92 1015.33 1015.67 1015.96 1016.18 1016.35 1016.47 1016.57 1016.64 1016.70 1016.76 1016.82 1016.88 1016.92 1016.95 1016.95 1016.92 1016.86 1016.75 1016.61 1016.43 1016.24 1016.03 1015.82 1015.60 1015.40 1015.20
1008.79 1009.27 1009.72 1010.13 1010.48 1010.78 1011.05 1011.30 1011.55 1011.84 1012.16 1012.54 1012.98 1013.47 1013.98 1014.51 1015.02 1015.50 1015.94 1016.31 1016.61 1016.85 1017.03 1017.17 1017.27 1017.35 1017.42 1017.48 1017.55 1017.60 1017.65 1017.67 1017.67 1017.64 1017.57 1017.46 1017.32 1017.15 1016.95 1016.75 1016.54 1016.34 1016.14 1015.94
1009.13 1009.62 1010.07 1010.47 1010.82 1011.12 1011.40 1011.67 1011.95 1012.27 1012.64 1013.06 1013.54 1014.07 1014.62 1015.18 1015.72 1016.23 1016.69 1017.08 1017.41 1017.67 1017.87 1018.03 1018.15 1018.25 1018.34 1018.43 1018.50 1018.57 1018.63 1018.66 1018.66 1018.62 1018.54 1018.43 1018.27 1018.09 1017.88 1017.67 1017.45 1017.23 1017.02 1016.80
1009.63 1010.12 1010.58 1010.97 1011.32 1011.63 1011.92 1012.22 1012.53 1012.89 1013.30 1013.76 1014.28 1014.84 1015.41 1015.99 1016.56 1017.08 1017.55 1017.96 1018.30 1018.58 1018.80 1018.99 1019.14 1019.27 1019.39 1019.50 1019.60 1019.68 1019.75 1019.79 1019.79 1019.74 1019.66 1019.52 1019.35 1019.14 1018.91 1018.67 1018.42 1018.16 1017.91 1017.66
1010.23 1010.73 1011.18 1011.58 1011.94 1012.26 1012.58 1012.91 1013.26 1013.66 1014.11 1014.60 1015.15 1015.73 1016.32 1016.91 1017.47 1018.00 1018.47 1018.88 1019.23 1019.53 1019.77 1019.98 1020.16 1020.32 1020.47 1020.61 1020.73 1020.83 1020.90 1020.94 1020.94 1020.88 1020.78 1020.62 1020.42 1020.18 1019.91 1019.63 1019.33 1019.02 1018.72 1018.40
1010.85 1011.35 1011.80 1012.21 1012.59 1012.95 1013.30 1013.67 1014.08 1014.52 1015.01 1015.54 1016.10 1016.69 1017.29 1017.87 1018.43 1018.94 1019.40 1019.81 1020.16 1020.46 1020.72 1020.95 1021.15 1021.33 1021.50 1021.66 1021.79 1021.90 1021.98 1022.01 1022.00 1021.93 1021.80 1021.61 1021.38 1021.10 1020.79 1020.45 1020.09 1019.73 1019.36 1018.98
1011.42 1011.92 1012.38 1012.81 1013.22 1013.62 1014.03 1014.45 1014.91 1015.40 1015.94 1016.50 1017.08 1017.68 1018.27 1018.84 1019.38 1019.87 1020.32 1020.71 1021.05 1021.35 1021.61 1021.84 1022.06 1022.25 1022.43 1022.59 1022.73 1022.84 1022.91 1022.94 1022.91 1022.81 1022.66 1022.44 1022.17 1021.84 1021.48 1021.09 1020.68 1020.25 1019.81 1019.36
Thickness
5658 5659 5657 5656 5656 5655 5654 5657 5656 5662 5664 5668 5667 5664 5662 5661 5658 5655 5654 5652 5651 5650 5650 5649 5648 5646 5644 5643 5641 5639 5636 5634 5632 5630 5627 5624 5621 5618 5616 5614 5613 5611 5610 5609
5650 5652 5650 5648 5652 5653 5652 5654 5655 5657 5659 5666 5664 5662 5657 5655 5652 5649 5648 5647 5646 5645 5644 5643 5642 5640 5638 5636 5634 5632 5630 5627 5625 5622 5620 5617 5614 5612 5610 5608 5607 5605 5605 5603
5643 5646 5643 5644 5654 5652 5652 5653 5651 5651 5657 5658 5655 5653 5651 5650 5647 5645 5644 5642 5641 5640 5639 5638 5637 5635 5633 5630 5628 5626 5623 5621 5618 5616 5613 5611 5609 5606 5604 5602 5600 5599 5598 5596
5636 5636 5628 5652 5657 5653 5648 5649 5650 5649 5651 5651 5650 5648 5647 5646 5643 5641 5639 5637 5635 5634 5633 5632 5631 5629 5627 5625 5622 5620 5617 5614 5612 5610 5608 5605 5603 5601 5599 5597 5594 5593 5592 5590
5628 5628 5635 5647 5647 5643 5641 5645 5650 5646 5645 5644 5643 5641 5642 5642 5639 5636 5634 5632 5630 5628 5627 5626 5625 5623 5621 5619 5616 5614 5611 5609 5606 5604 5602 5599 5597 5595 5593 5591 5589 5587 5586 5584
5622 5619 5625 5642 5645 5643 5638 5638 5649 5645 5641 5639 5635 5635 5640 5636 5632 5629 5627 5625 5623 5622 5621 5620 5619 5617 5615 5613 5611 5608 5605 5602 5600 5598 5596 5594 5592 5589 5587 5585 5583 5581 5579 5578
5618 5618 5631 5640 5637 5634 5626 5636 5643 5640 5638 5635 5633 5635 5633 5628 5624 5622 5619 5617 5615 5614 5614 5614 5612 5610 5609 5608 5605 5602 5599 5596 5593 5591 5590 5588 5586 5583 5581 5579 5577 5575 5573 5571
5614 5612 5622 5632 5628 5628 5634 5640 5637 5635 5633 5630 5629 5626 5623 5620 5617 5614 5611 5609 5608 5607 5607 5607 5606 5605 5604 5602 5599 5596 5593 5590 5588 5586 5584 5582 5580 5577 5575 5573 5571 5569 5567 5565
5617 5621 5629 5627 5628 5632 5631 5630 5631 5629 5627 5623 5620 5618 5615 5613 5610 5607 5605 5602 5601 5601 5600 5599 5599 5598 5598 5595 5592 5589 5586 5584 5581 5579 5577 5575 5573 5571 5569 5567 5565 5563 5560 5558
5611 5620 5621 5621 5623 5623 5622 5623 5624 5622 5619 5617 5615 5613 5610 5606 5604 5601 5598 5596 5594 5593 5593 5592 5591 5590 5590 5588 5585 5583 5581 5578 5575 5573 5570 5568 5565 5564 5562 5560 5558 5555 5553 5551
5608 5616 5616 5617 5617 5618 5617 5617 5616 5614 5613 5611 5609 5607 5604 5601 5598 5595 5592 5589 5587 5587 5586 5585 5583 5583 5582 5580 5578 5576 5574 5571 5568 5566 5563 5560 5558 5555 5554 5552 5550 5546 5545 5543
5607 5614 5612 5615 5616 5613 5611 5610 5610 5608 5606 5605 5603 5600 5598 5595 5591 5588 5585 5583 5581 5580 5579 5578 5576 5576 5575 5573 5572 5570 5567 5564 5561 5558 5555 5553 5550 5547 5542 5541 5538 5535 5534 5532
5604 5605 5605 5606 5608 5607 5606 5605 5604 5602 5600 5598 5596 5593 5590 5587 5584 5581 5579 5577 5574 5573 5571 5570 5569 5568 5566 5566 5565 5563 5560 5557 5554 5551 5548 5546 5543 5541 5539 5534 5530 5528 5525 5523
5596 5595 5596 5599 5600 5600 5599 5598 5597 5596 5594 5592 5590 5586 5583 5580 5578 5575 5572 5570 5568 5566 5564 5563 5561 5560 5558 5557 5556 5555 5552 5549 5546 5544 5541 5539 5536 5534 5532 5530 5528 5525 5520 5516
5589 5589 5591 5593 5592 5592 5591 5590 5589 5588 5587 5585 5582 5579 5576 5574 5572 5569 5566 5563 5561 5559 5557 5555 5554 5552 5550 5549 5548 5546 5544 5541 5539 5536 5533 5531 5529 5527 5525 5523 5521 5519 5515 5511
5583 5583 5584 5584 5584 5584 5583 5583 5583 5582 5580 5577 5575 5573 5571 5568 5565 5562 5559 5557 5555 5553 5552 5550 5548 5545 5543 5542 5540 5538 5536 5532 5529 5528 5525 5523 5521 5519 5517 5514 5512 5510 5508 5505
5575 5577 5577 5577 5577 5577 5577 5577 5577 5576 5574 5571 5569 5567 5564 5562 5559 5555 5553 5550 5548 5547 5545 5543 5541 5539 5536 5535 5533 5531 5529 5525 5521 5520 5518 5516 5513 5511 5508 5506 5504 5502 5500 5497
5570 5571 5572 5572 5572 5571 5570 5570 5570 5569 5567 5565 5562 5560 5558 5556 5554 5550 5547 5544 5542 5540 5539 5537 5535 5533 5530 5528 5526 5524 5522 5519 5516 5513 5510 5507 5505 5503 5501 5498 5496 5494 5492 5489
5562 5563 5564 5564 5564 5564 5564 5564 5563 5562 5560 5557 5555 5554 5553 5551 5548 5545 5542 5539 5537 5535 5533 5531 5527 5526 5524 5521 5518 5517 5514 5511 5508 5505 5503 5499 5497 5495 5492 5490 5488 5486 5484 5482
5554 5555 5556 5556 5556 5556 5556 5556 5556 5554 5553 5551 5549 5548 5546 5544 5541 5538 5535 5533 5532 5530 5528 5525 5522 5520 5517 5515 5510 5509 5507 5504 5501 5498 5495 5493 5490 5487 5485 5482 5480 5478 5476 5474
5546 5546 5546 5547 5547 5547 5548 5548 5548 5547 5546 5545 5543 5542 5541 5537 5534 5532 5529 5528 5526 5522 5520 5516 5515 5513 5511 5508 5503 5502 5500 5497 5494 5491 5488 5485 5482 5480 5477 5474 5472 5470 5469 5467
5538 5538 5538 5538 5539 5539 5540 5541 5541 5540 5539 5538 5537 5535 5533 5531 5528 5526 5524 5522 5520 5515 5513 5511 5509 5506 5503 5500 5497 5495 5492 5489 5487 5484 5480 5478 5475 5472 5470 5467 5465 5463 5461 5459
5530 5530 5530 5530 5531 5531 5532 5532 5533 5533 5532 5531 5530 5529 5527 5525 5522 5520 5519 5516 5513 5508 5507 5505 5502 5498 5495 5493 5491 5488 5485 5482 5479 5476 5473 5470 5467 5464 5462 5460 5458 5455 5453 5451
5521 5522 5522 5522 5522 5523 5524 5524 5524 5524 5524 5523 5522 5521 5519 5517 5515 5514 5512 5508 5504 5501 5500 5497 5493 5490 5487 5486 5483 5481 5478 5476 5472 5469 5466 5462 5459 5457 5454 5452 5450 5448 5446 5444
5513 5513 5513 5513 5514 5515 5516 5516 5515 5515 5514 5514 5513 5512 5511 5510 5508 5506 5504 5501 5497 5493 5492 5489 5485 5482 5480 5479 5476 5474 5471 5469 5465 5462 5459 5455 5452 5450 5447 5445 5443 5441 5440 5438
5504 5504 5505 5506 5506 5506 5506 5506 5506 5506 5506 5505 5504 5503 5502 5500 5498 5496 5495 5493 5490 5486 5485 5482 5479 5475 5474 5471 5469 5466 5463 5460 5457 5454 5451 5449 5446 5443 5441 5439 5437 5436 5434 5433
5495 5496 5496 5496 5497 5496 5496 5496 5497 5497 5497 5497 5496 5494 5493 5491 5490 5488 5486 5484 5482 5479 5477 5475 5472 5469 5466 5463 5461 5458 5456 5453 5450 5448 5445 5442 5440 5438 5436 5434 5432 5430 5428 5427